Flag for Cameroon Weather past 2 weeks in Bamenda, Cameroon

Now
81 °F

Broken clouds.


Feels Like: 85 °F
Forecast: 63 / 75 °F
Wind: 7 mph from Southwest

Location: Douala Obs.

Current Time: Jul 22, 2014 at 1:23:27 PM

Latest Report: Jul 22, 2014 at 12:00 PM


Visibility: N/A

Pressure: 30.01 "Hg

Humidity: 79%

Dew point: 73 °F

Location of BamendaLocation

Historic Weather in Bamenda — Graph

°F

Bamenda temperature yesterday

Maximum temperature yesterday: 82 °F (at 2:00 PM)
Minimum temperature yesterday: 75 °F (at 1:00 AM)
Average temperature yesterday: 78 °F

Past Weeks' High & Low Weather Summary

 TemperatureHumidityPressure
High84 °F (Jul 9, 3:00 PM)100% (Jul 8, 9:00 AM)30.07 "Hg (Jul 8, 9:00 AM)
Low72 °F (Jul 15, 11:00 AM)70% (Jul 9, 3:00 PM)29.86 "Hg (Jul 14, 6:00 PM)
Average78 °F90%29.98 "Hg
* Reported Jul 7 12:00 Noon — Jul 22 12:00 Noon, Bamenda, Weather by CustomWeather, © 2014

Note: Actual official high and low records may vary slightly from our data, if they occured in-between our weather recording intervals... More about our weather records

Advertising

Bamenda weather history for previous 24 hours

 ConditionsComfort  
Time TempWeatherWind HumidityBarometerVisibility
12:00 PM
Jul 22
81 °FBroken clouds.7 mph79%30.01 "HgN/A
11:00 AM79 °FPartly sunny.No wind84%30.04 "HgN/A
10:00 AM79 °FPartly sunny.7 mph89%30.04 "HgN/A
9:00 AM77 °FPartly sunny.No wind89%30.04 "HgN/A
8:00 AM75 °FDrizzle. More clouds than sun.No wind94%30.01 "Hg1 mi
7:00 AM75 °FDrizzle. More clouds than sun.No wind94%29.98 "Hg2 mi
6:00 AM75 °FPassing clouds.No wind94%29.98 "HgN/A
5:00 AM75 °FMostly cloudy.No wind94%29.95 "Hg4 mi
4:00 AM75 °FMostly cloudy.No wind94%29.98 "Hg4 mi
3:00 AM75 °FRain. Mostly cloudy.No wind94%29.98 "Hg2 mi
2:00 AM75 °FPartly cloudy.No wind94%29.98 "HgN/A
1:00 AM77 °FPartly cloudy.No wind89%29.98 "HgN/A
12:00 AM77 °FLight rain. Partly cloudy.No wind94%29.98 "Hg4 mi
11:00 PM
Jul 21
77 °FPassing clouds.No wind89%30.01 "HgN/A
10:00 PM77 °FPassing clouds.5 mph89%30.01 "HgN/A
9:00 PM79 °FPassing clouds.No wind84%29.98 "HgN/A
8:00 PM79 °FPassing clouds.No wind84%29.95 "HgN/A
7:00 PM79 °FOvercast.5 mph84%29.95 "HgN/A
6:00 PM81 °FOvercast.5 mph79%29.95 "HgN/A
5:00 PM81 °FPartly sunny.12 mph84%29.95 "HgN/A
4:00 PM81 °FThunderstorms. Cloudy.5 mph79%29.95 "HgN/A
3:00 PM82 °FThunderstorms. Broken clouds.9 mph74%29.98 "Hg5 mi
2:00 PM82 °FBroken clouds.9 mph74%30.01 "Hg5 mi
1:00 PM81 °FBroken clouds.12 mph74%30.01 "Hg5 mi
Weather by CustomWeather, © 2014

See weather overviewHow to use our weather pages